Terminal Aerodrome Forecast
Issued by NWS

Home | Current Version | Previous Version | Text Only | Print | Product List | Glossary On
Versions: 1 2 3 4 5 6 7 8 9 10 11 12 13 14
000
FTUS45 KRIW 232320
TAFRKS
TAF
KRKS 232320Z 2400/2424 28017G28KT P6SM VCTS SCT050 BKN070CB
     FM240100 25013KT P6SM VCSH SCT040 BKN080
     FM240300 VRB15G25KT 6SM -SHRA SCT025 BKN035
     FM240700 26008KT P6SM FEW025 BKN110
     FM241700 24011G18KT P6SM BKN100
     FM242100 27011G18KT P6SM VCTS BKN050CB
     FM242300 28011G18KT 6SM -TSRA SCT025 BKN040CB=

USA.gov is the U.S. government's official web portal to all federal, state and local government web resources and services.